[[[{"header":{"parameterUnit":"kt","parameterCategory":2,"dx":1,"dy":1,"la1":30.253999710083008,"la2":30.299108505249023,"lo1":-89.0895004272461,"lo2":-89.04439544677734,"nx":28,"ny":28,"refTime":"2022-09-24T21:00:00:Z","depth":"0","parameterNumber":2,"parameterNumberName":"U-component_of_CURRENTS"},"data":[0.1125,0.1165,0.1225,0.1345,0.1445,0.1579,0.1695,0.191,0.2172,0.2673,0.3123,0.347,0.4314,0.5338,0.5762,0.562,0.5261,0.5199,0.4951,0.5018,0.4934,0.4853,0.4941,0.5662,0.5664,0.4934,0.4933,0.4931,0.1161,0.1216,0.1296,0.1406,0.1491,0.1583,0.1762,0.1875,0.2089,0.2425,0.2678,0.3375,0.3872,0.4184,0.4671,0.4725,0.4318,0.4673,0.4377,0.4247,0.4082,0.4158,0.4724,0.4723,0.4723,0.4723,0.4723,0.4723,0.1241,0.1264,0.1346,0.1431,0.152,0.1649,0.1733,0.1894,0.2053,0.2306,0.2465,0.2803,0.3313,0.3565,0.3536,0.3783,0.3432,0.375,0.3838,0.3519,0.3516,0.3311,0.3651,0.3648,0.3645,0.3642,0.364,0,0.1298,0.1338,0.1388,0.1485,0.1556,0.1648,0.1752,0.1825,0.1969,0.2094,0.233,0.2494,0.2779,0.3033,0.3129,0.3087,0.2909,0.2929,0.3047,0.3438,0.3232,0.3156,0.2746,0.3042,0.3035,0.303,0.3026,0.3023,0.1353,0.1379,0.1486,0.1529,0.1572,0.1646,0.17,0.1794,0.1865,0.206,0.212,0.2298,0.2451,0.2577,0.2598,0.2622,0.2491,0.2769,0.2643,0.2834,0.2932,0.2651,0.2583,0.2949,0.2958,0.2966,0.2972,0,0.138,0.1442,0.1495,0.1587,0.1617,0.1652,0.1756,0.1799,0.187,0.1963,0.1992,0.2085,0.22,0.2167,0.214,0.2091,0.2196,0.2129,0.2392,0.2431,0.2698,0.2785,0.2837,0.2794,0.2324,0.233,0.2335,0,0.1437,0.1464,0.1556,0.1578,0.1631,0.1679,0.173,0.1753,0.1816,0.1878,0.1871,0.1946,0.1866,0.1913,0.1828,0.1917,0.1846,0.1858,0.1866,0.2044,0.2076,0.2211,0.2302,0.1646,0.1645,0.1644,0.1643,0,0.1451,0.1516,0.1559,0.1578,0.1643,0.1667,0.1695,0.1717,0.1744,0.1777,0.1817,0.1799,0.1821,0.177,0.1738,0.1661,0.176,0.1635,0.1786,0.18,0.2,0.2031,0.236,0.1641,0.1641,0.164,0.164,0,0.1482,0.1523,0.1565,0.1632,0.164,0.1655,0.1687,0.1694,0.1707,0.1705,0.1703,0.1673,0.167,0.1591,0.1586,0.156,0.153,0.1497,0.15,0.1653,0.1612,0.1968,0.2152,0.2307,0.1538,0.1537,0.1535,0,0.1495,0.1539,0.1562,0.1592,0.161,0.1613,0.1624,0.162,0.1609,0.1618,0.1567,0.155,0.1475,0.1465,0.1451,0.1405,0.1427,0.1368,0.14,0.1402,0.1584,0.1703,0.1942,0.2109,0.1518,0.152,0.1521,0,0.1493,0.1551,0.1548,0.1574,0.1577,0.1574,0.1578,0.157,0.1582,0.1536,0.1553,0.1457,0.1438,0.1399,0.1341,0.1337,0.1399,0.1302,0.13,0.1387,0.1466,0.1655,0.1685,0.1356,0.1358,0.1359,0.1507,0,0.1537,0.1549,0.1553,0.1562,0.1559,0.1556,0.1535,0.1527,0.1502,0.1479,0.1447,0.1368,0.1322,0.1289,0.1238,0.1249,0.1262,0.1206,0.1196,0.123,0.129,0.1301,0.1142,0.1141,0.114,0.1138,0,0,0.1525,0.1536,0.1526,0.1535,0.1533,0.1499,0.1503,0.1479,0.1425,0.1418,0.1392,0.1297,0.1232,0.12,0.1196,0.1155,0.1179,0.1172,0.12,0.1207,0.1214,0.1273,0.1286,0.1136,0.1136,0.1135,0.1135,0,0.1531,0.1527,0.1532,0.1526,0.1507,0.1483,0.1485,0.1443,0.1425,0.1389,0.1334,0.1292,0.1214,0.1173,0.1139,0.1139,0.1137,0.1122,0.1185,0.1188,0.1197,0.1205,0.1266,0.1278,0.1131,0.1132,0.1132,0,0.1528,0.152,0.1516,0.1497,0.1473,0.1465,0.1431,0.1411,0.1402,0.1329,0.13,0.1246,0.1174,0.1138,0.1117,0.1108,0.1115,0.1078,0.1083,0.1098,0.11,0.111,0.1118,0.1014,0.1014,0.1014,0,0,0.153,0.1533,0.15,0.1491,0.1484,0.1441,0.1423,0.1401,0.1356,0.1337,0.1289,0.1233,0.1181,0.1158,0.1103,0.1073,0.1079,0.1068,0.1074,0.1079,0.1096,0.11,0.1108,0.1014,0.1014,0.1014,0,0,0.1521,0.1498,0.149,0.1478,0.1454,0.14,0.1389,0.1367,0.1323,0.1317,0.1254,0.1238,0.1197,0.1156,0.1166,0.1109,0.1079,0.1076,0.1152,0.1158,0.1163,0.1199,0.1127,0,0,0,0,0,0.1506,0.1505,0.1498,0.1491,0.1438,0.1408,0.1398,0.1359,0.1346,0.1344,0.129,0.1263,0.1147,0.1155,0.1139,0.1149,0.1017,0.1017,0.1016,0.1105,0.1111,0.1117,0,0,0,0,0,0,0.1503,0.1496,0.1497,0.1447,0.1434,0.1407,0.1376,0.1365,0.1346,0.1342,0.1272,0.126,0.1214,0.1159,0.1146,0.1157,0.1132,0.1017,0.1017,0.1016,0.1107,0.1113,0.1117,0,0,0,0,0,0.1501,0.1495,0.1427,0.1445,0.1434,0.1382,0.1376,0.1367,0.1351,0.128,0.1268,0.1326,0.1215,0.1201,0.1151,0.1164,0.114,0.1136,0.1017,0.1016,0.1016,0.111,0,0,0,0,0,0,0.1499,0.1477,0.1423,0.1417,0.145,0.1382,0.1373,0.1369,0.1289,0.1278,0.133,0.1328,0.1216,0.1205,0.1194,0.117,0.1148,0.1143,0.114,0.1017,0.1016,0.1016,0,0,0,0,0,0,0.148,0.1473,0.142,0.1428,0.1422,0.1383,0.1375,0.1326,0.1289,0.1343,0.1339,0.133,0.1229,0.1207,0.1198,0.1122,0.1153,0.1149,0.1145,0.1143,0.1016,0.1016,0,0,0,0,0,0,0.1475,0.1469,0.1429,0.1425,0.142,0.1347,0.1336,0.1282,0.1305,0.1347,0.1306,0.1306,0.1232,0.1222,0.1202,0.113,0.1124,0.1153,0.115,0.1148,0.1146,0,0,0,0,0,0,0,0.1472,0.1531,0.1461,0.1422,0.1418,0.1361,0.1359,0.1357,0.1305,0.1305,0.1306,0.1306,0.118,0.1175,0.1169,0.1136,0,0,0.1153,0.1151,0,0,0,0,0,0,0,0,0.1531,0.1531,0.1461,0.146,0.1459,0.136,0.1359,0.1357,0.1305,0.1305,0.1306,0.1306,0.1178,0.1174,0.117,0,0,0,0,0,0,0,0,0,0,0,0,0,0,0,0.1461,0.146,0,0.136,0.1359,0.1358,0.1305,0.1305,0.1306,0.1306,0.1177,0.1174,0.117,0,0,0,0,0,0,0,0,0,0,0,0,0,0,0,0,0,0,0,0,0,0,0,0,0,0,0,0,0,0,0,0,0,0,0,0,0,0,0,0,0,0,0,0,0,0,0,0,0,0,0,0,0,0,0,0,0,0,0,0,0,0,0,0,0,0,0,0,0]}],[{"header":{"parameterUnit":"kt","parameterCategory":2,"dx":1,"dy":1,"la1":30.253999710083008,"la2":30.299108505249023,"lo1":-89.0895004272461,"lo2":-89.04439544677734,"nx":28,"ny":28,"refTime":"2022-09-24T21:00:00:Z","depth":"0","parameterNumber":3,"parameterNumberName":"V-component_of_CURRENTS"},"data":[-0.0272,-0.0181,-0.0188,-0.0056,-0.003,0.0093,0.0156,0.0269,0.0351,0.0568,0.0676,0.0703,0.0554,-0.1064,-0.2184,-0.2598,-0.3103,-0.3205,-0.3548,-0.3033,-0.3012,-0.2993,-0.3037,-0.3194,-0.3195,-0.416,-0.4167,-0.4173,-0.0392,-0.0375,-0.0325,-0.0283,-0.022,-0.0271,-0.0203,-0.0117,-0.0004,0.0052,0.0074,-0.0039,-0.0639,-0.1265,-0.1996,-0.2471,-0.289,-0.2747,-0.2878,-0.3107,-0.2506,-0.253,-0.2582,-0.2582,-0.2582,-0.2581,-0.2581,-0.2581,-0.0611,-0.0554,-0.0541,-0.0501,-0.0481,-0.0433,-0.0362,-0.0366,-0.0307,-0.0242,-0.0372,-0.0362,-0.083,-0.1413,-0.1819,-0.2375,-0.2476,-0.2455,-0.2557,-0.2653,-0.2936,-0.2305,-0.2325,-0.2325,-0.2325,-0.2325,-0.2326,0,-0.079,-0.08,-0.0765,-0.0731,-0.0706,-0.0677,-0.067,-0.0627,-0.0709,-0.0684,-0.0686,-0.0738,-0.109,-0.1368,-0.177,-0.199,-0.2405,-0.2234,-0.2372,-0.2516,-0.2629,-0.2908,-0.2282,-0.2253,-0.2253,-0.2253,-0.2253,-0.2253,-0.1015,-0.0963,-0.0972,-0.0946,-0.0952,-0.0924,-0.091,-0.0993,-0.0974,-0.1023,-0.0986,-0.1108,-0.1175,-0.1484,-0.1828,-0.2099,-0.2296,-0.2223,-0.2296,-0.2418,-0.2551,-0.2663,-0.2888,-0.2252,-0.2252,-0.2252,-0.2252,0,-0.1132,-0.1177,-0.1112,-0.1147,-0.1157,-0.1109,-0.1142,-0.1113,-0.1181,-0.1146,-0.1155,-0.1298,-0.1432,-0.1652,-0.1842,-0.2009,-0.2294,-0.2221,-0.2173,-0.2203,-0.2432,-0.2529,-0.2685,-0.295,-0.2305,-0.2306,-0.2306,0,-0.1329,-0.1276,-0.1336,-0.1301,-0.1241,-0.133,-0.1276,-0.1328,-0.1372,-0.1344,-0.1497,-0.149,-0.1713,-0.1806,-0.197,-0.2125,-0.2096,-0.2273,-0.2307,-0.2286,-0.2288,-0.2432,-0.2534,-0.2259,-0.226,-0.226,-0.226,0,-0.1466,-0.1473,-0.1416,-0.1427,-0.1476,-0.1463,-0.1492,-0.1555,-0.1557,-0.1616,-0.1612,-0.1716,-0.1746,-0.187,-0.2044,-0.2078,-0.2155,-0.2221,-0.2311,-0.2314,-0.2324,-0.233,-0.2388,-0.226,-0.226,-0.226,-0.226,0,-0.1624,-0.1626,-0.1563,-0.1592,-0.1592,-0.1586,-0.161,-0.1632,-0.17,-0.1739,-0.1793,-0.1871,-0.193,-0.2019,-0.2129,-0.2136,-0.2212,-0.2282,-0.2284,-0.2351,-0.2422,-0.2359,-0.2311,-0.2443,-0.2325,-0.2325,-0.2326,0,-0.1738,-0.1703,-0.1765,-0.1724,-0.1709,-0.1806,-0.1812,-0.1858,-0.191,-0.1924,-0.2015,-0.2036,-0.2139,-0.2154,-0.2199,-0.2289,-0.2298,-0.2311,-0.2391,-0.2393,-0.2406,-0.2364,-0.234,-0.2319,-0.2332,-0.2331,-0.2331,0,-0.183,-0.1889,-0.1882,-0.1879,-0.1953,-0.1959,-0.1978,-0.2005,-0.1998,-0.2071,-0.2056,-0.2145,-0.2192,-0.2229,-0.2302,-0.2331,-0.2311,-0.2395,-0.2399,-0.2358,-0.2331,-0.2369,-0.2368,-0.2362,-0.2361,-0.236,-0.2336,0,-0.195,-0.1959,-0.1955,-0.1988,-0.2017,-0.2014,-0.2081,-0.2106,-0.2149,-0.2186,-0.2217,-0.2295,-0.2339,-0.2373,-0.2426,-0.2424,-0.2445,-0.2494,-0.2515,-0.2486,-0.2483,-0.2478,-0.2558,-0.256,-0.2562,-0.2563,0,0,-0.202,-0.2023,-0.2104,-0.2105,-0.2118,-0.2204,-0.218,-0.2224,-0.2279,-0.2288,-0.2324,-0.2404,-0.2459,-0.2478,-0.2482,-0.2522,-0.2537,-0.2519,-0.2513,-0.2507,-0.2502,-0.2496,-0.249,-0.2566,-0.2567,-0.2567,-0.2568,0,-0.2057,-0.2118,-0.2105,-0.2142,-0.219,-0.2227,-0.2231,-0.2284,-0.231,-0.2335,-0.2388,-0.2424,-0.249,-0.2523,-0.2552,-0.2542,-0.2574,-0.2571,-0.2508,-0.2526,-0.2518,-0.2511,-0.2503,-0.2497,-0.2572,-0.2571,-0.2571,0,-0.2115,-0.2159,-0.2164,-0.2223,-0.2257,-0.2262,-0.232,-0.234,-0.2343,-0.2421,-0.2435,-0.2485,-0.2551,-0.2572,-0.2589,-0.2607,-0.2609,-0.2626,-0.262,-0.2602,-0.2623,-0.2614,-0.2606,-0.2699,-0.2699,-0.2699,0,0,-0.2143,-0.2163,-0.2221,-0.2232,-0.225,-0.2306,-0.2326,-0.2355,-0.2398,-0.2419,-0.2461,-0.251,-0.2548,-0.2571,-0.2609,-0.2632,-0.2648,-0.2636,-0.263,-0.2625,-0.2603,-0.2622,-0.2615,-0.2698,-0.2698,-0.2698,0,0,-0.215,-0.221,-0.2239,-0.2255,-0.2295,-0.2351,-0.2359,-0.2393,-0.2437,-0.2438,-0.2496,-0.251,-0.2534,-0.2579,-0.2566,-0.2612,-0.2645,-0.2649,-0.256,-0.2554,-0.2548,-0.2508,-0.26,0,0,0,0,0,-0.2203,-0.2201,-0.2227,-0.2237,-0.2304,-0.2339,-0.235,-0.2396,-0.2415,-0.2425,-0.2469,-0.2494,-0.2588,-0.2576,-0.2587,-0.2572,-0.269,-0.2692,-0.2693,-0.2586,-0.2579,-0.2572,0,0,0,0,0,0,-0.2207,-0.2219,-0.2227,-0.228,-0.2296,-0.234,-0.2373,-0.2387,-0.2415,-0.2421,-0.2485,-0.2496,-0.2532,-0.2573,-0.2583,-0.2567,-0.2597,-0.2691,-0.2692,-0.2693,-0.2584,-0.2577,-0.2572,0,0,0,0,0,-0.2211,-0.222,-0.2315,-0.2281,-0.2294,-0.2355,-0.2374,-0.2385,-0.2413,-0.2468,-0.248,-0.2446,-0.253,-0.2541,-0.2579,-0.2562,-0.2591,-0.2594,-0.2692,-0.2693,-0.2694,-0.2581,0,0,0,0,0,0,-0.2213,-0.2237,-0.2319,-0.2325,-0.2283,-0.2354,-0.2367,-0.2384,-0.2459,-0.247,-0.243,-0.2433,-0.2529,-0.2538,-0.2546,-0.2557,-0.2586,-0.2589,-0.2592,-0.2692,-0.2693,-0.2694,0,0,0,0,0,0,-0.2232,-0.2241,-0.2323,-0.2322,-0.2329,-0.2353,-0.2364,-0.2396,-0.2459,-0.2418,-0.2423,-0.243,-0.2514,-0.2536,-0.2542,-0.2591,-0.2582,-0.2585,-0.2588,-0.2589,-0.2693,-0.2694,0,0,0,0,0,0,-0.2237,-0.2245,-0.2321,-0.2326,-0.2332,-0.2406,-0.2383,-0.245,-0.2458,-0.2414,-0.246,-0.2461,-0.2511,-0.2519,-0.254,-0.2585,-0.259,-0.2582,-0.2585,-0.2586,-0.2587,0,0,0,0,0,0,0,-0.2241,-0.2172,-0.228,-0.233,-0.2335,-0.2381,-0.2383,-0.2385,-0.2458,-0.2459,-0.246,-0.246,-0.2564,-0.2567,-0.2571,-0.258,0,0,-0.2582,-0.2584,0,0,0,0,0,0,0,0,-0.217,-0.2171,-0.228,-0.2281,-0.2282,-0.2381,-0.2383,-0.2385,-0.2458,-0.2459,-0.246,-0.246,-0.2565,-0.2568,-0.2571,0,0,0,0,0,0,0,0,0,0,0,0,0,0,0,-0.228,-0.2281,0,-0.2382,-0.2383,-0.2384,-0.2459,-0.2459,-0.2459,-0.246,-0.2566,-0.2568,-0.257,0,0,0,0,0,0,0,0,0,0,0,0,0,0,0,0,0,0,0,0,0,0,0,0,0,0,0,0,0,0,0,0,0,0,0,0,0,0,0,0,0,0,0,0,0,0,0,0,0,0,0,0,0,0,0,0,0,0,0,0,0,0,0,0,0,0,0,0,0]}]],[[{"header":{"parameterUnit":"kt","parameterCategory":2,"dx":1,"dy":1,"la1":30.253999710083008,"la2":30.299108505249023,"lo1":-89.0895004272461,"lo2":-89.04439544677734,"nx":28,"ny":28,"refTime":"2022-09-24T21:00:00:Z","depth":"2","parameterNumber":2,"parameterNumberName":"U-component_of_CURRENTS"},"data":[0.1502,0.1538,0.155,0.1597,0.1635,0.1675,0.1717,0.1689,0.167,0.1583,0.147,0.1377,0.1562,0.1211,0.1257,0.1229,0.1464,0.1181,0.2213,0.1813,0.1866,0.2038,0.175,0,0,0,0,0,0.1477,0.15,0.1549,0.1601,0.1648,0.1698,0.1819,0.1824,0.1953,0.2002,0.2117,0.1843,0.1754,0.1932,0.1954,0.2102,0.1969,0.2003,0.1638,0.1695,0.1748,0.1527,0.1174,0.1174,0.1173,0.1173,0,0,0.1428,0.1463,0.1493,0.1558,0.1626,0.1704,0.1772,0.1913,0.209,0.224,0.2488,0.2535,0.2542,0.2655,0.2759,0.2849,0.3063,0.2739,0.2745,0.2764,0.2604,0.2461,0.253,0.2537,0.2543,0.2549,0.2554,0,0.1387,0.139,0.1451,0.1505,0.1579,0.1688,0.1823,0.1917,0.2146,0.2333,0.262,0.2789,0.3147,0.3084,0.3319,0.332,0.3183,0.3132,0.382,0.2437,0.2274,0.2254,0.2256,0.2343,0.2349,0.2354,0.2358,0.236,0.1302,0.1348,0.1432,0.1471,0.1518,0.164,0.1736,0.1908,0.2045,0.2388,0.2506,0.2839,0.3023,0.3435,0.3517,0.3686,0.3735,0.3263,0.3011,0.3468,0.3458,0.3422,0.3389,0.2429,0.2421,0.2413,0.2408,0,0.125,0.1289,0.1392,0.1502,0.1536,0.1623,0.1797,0.1929,0.2093,0.2321,0.2387,0.2654,0.2926,0.3095,0.3364,0.3363,0.3549,0.3601,0.295,0.2901,0.3389,0.3359,0.373,0.3734,0.3736,0.3739,0.3741,0,0.1197,0.1279,0.1346,0.14,0.1522,0.1616,0.178,0.1895,0.2091,0.2259,0.2372,0.2545,0.2697,0.2909,0.2962,0.318,0.3247,0.3209,0.3238,0.2702,0.2654,0.3045,0.3016,0.3269,0.3267,0.3265,0.3264,0,0.1125,0.1252,0.134,0.1383,0.153,0.1605,0.1691,0.1876,0.1997,0.2201,0.2305,0.2487,0.2597,0.2731,0.2838,0.2748,0.3141,0.3041,0.3131,0.3129,0.2714,0.2668,0.3261,0.3261,0.326,0.326,0.3259,0,0.1103,0.1168,0.128,0.142,0.1459,0.1529,0.1721,0.1823,0.2022,0.209,0.2219,0.2281,0.2448,0.2358,0.2624,0.2517,0.259,0.2666,0.2678,0.2715,0.2646,0.2311,0.2412,0.2754,0.275,0.2746,0.2742,0,0.1027,0.1139,0.1187,0.1312,0.1384,0.1455,0.1565,0.1682,0.1773,0.1915,0.2006,0.2135,0.2066,0.2114,0.2214,0.234,0.2449,0.2283,0.2561,0.2569,0.2547,0.2749,0.2174,0.2362,0.2687,0.2693,0.2697,0,0.0971,0.1077,0.1091,0.1151,0.1249,0.1309,0.1423,0.1555,0.1654,0.1715,0.1862,0.1975,0.1983,0.2051,0.2078,0.2183,0.2354,0.2159,0.2166,0.2235,0.2659,0.2669,0.2706,0.2381,0.2388,0.2393,0.2654,0,0.0955,0.1013,0.1048,0.1139,0.1196,0.1259,0.1334,0.1399,0.143,0.1492,0.1649,0.1713,0.1839,0.1863,0.1869,0.2055,0.2049,0.2044,0.2008,0.2121,0.2215,0.2249,0.184,0.184,0.1839,0.1839,0,0,0.0882,0.0954,0.0986,0.1048,0.1101,0.113,0.1198,0.1254,0.1341,0.1406,0.1363,0.1582,0.1624,0.1806,0.1826,0.185,0.1919,0.1826,0.2049,0.2072,0.2094,0.2189,0.2222,0.1838,0.1838,0.1838,0.1838,0,0.088,0.0913,0.0961,0.1009,0.1081,0.1121,0.1135,0.1201,0.1239,0.1331,0.1373,0.1458,0.1567,0.1654,0.1711,0.1829,0.1862,0.1842,0.189,0.2039,0.2062,0.2084,0.2182,0.2212,0.1837,0.1837,0.1837,0,0.0846,0.0892,0.0915,0.0992,0.1038,0.1101,0.109,0.1146,0.1208,0.1221,0.1316,0.1368,0.146,0.1567,0.1616,0.1591,0.1812,0.1711,0.1716,0.1742,0.1896,0.1922,0.1945,0.1644,0.1643,0.1642,0,0,0.0844,0.0886,0.0949,0.0995,0.1022,0.1074,0.1107,0.1128,0.1188,0.1211,0.1259,0.1331,0.1424,0.1463,0.1543,0.1634,0.1701,0.1684,0.1694,0.1701,0.173,0.1885,0.191,0.1638,0.1638,0.1638,0,0,0.084,0.0908,0.0922,0.0975,0.103,0.1094,0.1128,0.1141,0.1204,0.1204,0.1248,0.1265,0.1371,0.1401,0.1348,0.1525,0.1492,0.1505,0.1489,0.1501,0.151,0.1523,0.1335,0,0,0,0,0,0.0869,0.0901,0.0913,0.0929,0.1021,0.1091,0.1105,0.1137,0.1126,0.115,0.1205,0.1202,0.1391,0.1345,0.1364,0.1414,0.1591,0.1599,0.1607,0.1611,0.1623,0.1634,0,0,0,0,0,0,0.0875,0.0893,0.0913,0.0976,0.0998,0.1089,0.1078,0.1087,0.1124,0.1123,0.1194,0.1204,0.1235,0.1336,0.1353,0.14,0.1329,0.1594,0.1601,0.1608,0.1615,0.1625,0.1634,0,0,0,0,0,0.0881,0.0895,0.1028,0.0976,0.0995,0.105,0.1076,0.1084,0.111,0.1175,0.1185,0.1131,0.1235,0.1252,0.1346,0.1392,0.1317,0.1323,0.1599,0.1604,0.1609,0.162,0,0,0,0,0,0,0.0885,0.0904,0.1033,0.1041,0.0958,0.1046,0.1058,0.108,0.1159,0.117,0.1114,0.1113,0.1236,0.1249,0.1262,0.1388,0.1308,0.1314,0.1318,0.1603,0.1607,0.1611,0,0,0,0,0,0,0.0897,0.091,0.1037,0.1013,0.1018,0.1041,0.1052,0.1124,0.116,0.1093,0.1095,0.1113,0.122,0.1247,0.1257,0.1367,0.13,0.1306,0.1311,0.1313,0.1607,0.161,0,0,0,0,0,0,0.0904,0.0915,0.1011,0.1015,0.1019,0.1109,0.1106,0.1198,0.1135,0.1089,0.1131,0.1129,0.1218,0.1229,0.1254,0.1359,0.1365,0.13,0.1305,0.1308,0.131,0,0,0,0,0,0,0,0.0909,0.0819,0.0988,0.1016,0.102,0.1115,0.1117,0.1119,0.1135,0.1133,0.1132,0.113,0.1265,0.1272,0.1279,0.1353,0,0,0.13,0.1303,0,0,0,0,0,0,0,0,0.0815,0.0818,0.0989,0.0991,0.0992,0.1115,0.1117,0.1118,0.1134,0.1133,0.1132,0.1131,0.1267,0.1272,0.1278,0,0,0,0,0,0,0,0,0,0,0,0,0,0,0,0.0989,0.099,0,0.1115,0.1117,0.1118,0.1134,0.1133,0.1132,0.1131,0.1268,0.1273,0.1277,0,0,0,0,0,0,0,0,0,0,0,0,0,0,0,0,0,0,0,0,0,0,0,0,0,0,0,0,0,0,0,0,0,0,0,0,0,0,0,0,0,0,0,0,0,0,0,0,0,0,0,0,0,0,0,0,0,0,0,0,0,0,0,0,0,0,0,0,0]}],[{"header":{"parameterUnit":"kt","parameterCategory":2,"dx":1,"dy":1,"la1":30.253999710083008,"la2":30.299108505249023,"lo1":-89.0895004272461,"lo2":-89.04439544677734,"nx":28,"ny":28,"refTime":"2022-09-24T21:00:00:Z","depth":"2","parameterNumber":3,"parameterNumberName":"V-component_of_CURRENTS"},"data":[0.1131,0.1146,0.1174,0.1318,0.1424,0.1613,0.1743,0.1946,0.1952,0.1843,0.1564,0.1492,0.0864,0.037,0.0093,-0.0193,-0.0148,-0.0221,0.0034,0.0086,0.0106,-0.0114,-0.0021,0,0,0,0,0,0.1158,0.1186,0.1234,0.133,0.1433,0.1507,0.1688,0.1806,0.2008,0.196,0.2028,0.1359,0.1039,0.0542,0.0042,-0.0142,-0.0131,-0.0283,-0.0288,-0.027,-0.0253,-0.0207,-0.0434,-0.0435,-0.0436,-0.0437,0,0,0.1209,0.1218,0.1255,0.1317,0.1408,0.1543,0.1632,0.1755,0.1883,0.1966,0.1933,0.1763,0.1337,0.0716,0.0442,0.0095,0.0175,-0.0047,-0.0041,-0.0032,0.0024,0.0058,-0.014,-0.0139,-0.0138,-0.0137,-0.0137,0,0.1245,0.1261,0.1284,0.1352,0.1408,0.1497,0.1572,0.163,0.1688,0.1738,0.1786,0.1763,0.1419,0.1064,0.063,0.044,0.0186,0.0092,0.0252,0.0125,0.0159,0.0163,0.0188,-0.0029,-0.0027,-0.0026,-0.0025,-0.0024,0.1282,0.1288,0.1348,0.1382,0.1403,0.145,0.15,0.1545,0.1592,0.1602,0.1616,0.1459,0.1413,0.104,0.0743,0.043,0.04,0.0137,0.0166,0.0363,0.0363,0.0384,0.0403,-0.0005,-0.0007,-0.0009,-0.0011,0,0.1303,0.133,0.1357,0.1404,0.1427,0.1445,0.1516,0.1545,0.1542,0.1555,0.1532,0.145,0.1265,0.1041,0.0779,0.0643,0.0444,0.0371,0.0327,0.0306,0.0399,0.0417,0.0207,0.0205,0.0204,0.0203,0.0202,0,0.1343,0.1356,0.1399,0.1406,0.1439,0.1465,0.1493,0.1502,0.1507,0.152,0.1429,0.1411,0.1183,0.1034,0.0872,0.0653,0.063,0.0529,0.0508,0.0458,0.0457,0.0628,0.0646,0.049,0.0492,0.0494,0.0495,0,0.1365,0.1397,0.1408,0.1419,0.146,0.1471,0.1488,0.1488,0.1506,0.1449,0.1438,0.1293,0.1218,0.1053,0.0883,0.0906,0.0661,0.068,0.0571,0.0571,0.0475,0.0473,0.0497,0.0497,0.0498,0.0498,0.0499,0,0.1394,0.1411,0.142,0.1465,0.1471,0.1475,0.1493,0.1497,0.1467,0.1449,0.1373,0.1325,0.1195,0.1171,0.0952,0.1024,0.0907,0.0838,0.0829,0.0846,0.0877,0.0652,0.0497,0.0744,0.0747,0.075,0.0752,0,0.1415,0.1426,0.1443,0.1452,0.1463,0.1478,0.1479,0.1473,0.1457,0.1434,0.1354,0.1311,0.1258,0.1228,0.1138,0.1062,0.096,0.1064,0.0905,0.09,0.0927,0.0806,0.0728,0.0542,0.0784,0.078,0.0778,0,0.1432,0.1461,0.1457,0.1474,0.1478,0.1484,0.1476,0.1472,0.1475,0.1419,0.1398,0.1307,0.1271,0.125,0.1221,0.1149,0.1011,0.1143,0.114,0.1069,0.0834,0.0849,0.0828,0.1013,0.101,0.1007,0.0803,0,0.1465,0.1478,0.1473,0.1485,0.1487,0.1482,0.1492,0.1483,0.1474,0.1465,0.1409,0.136,0.1318,0.1296,0.1287,0.1199,0.1194,0.1213,0.1239,0.1172,0.1092,0.1071,0.1322,0.1323,0.1324,0.1324,0,0,0.1479,0.1496,0.1507,0.1509,0.1516,0.152,0.1521,0.1515,0.1508,0.15,0.1493,0.1424,0.14,0.135,0.1323,0.1316,0.1274,0.1336,0.1213,0.1201,0.1189,0.111,0.109,0.1325,0.1326,0.1326,0.1326,0,0.1495,0.1513,0.1513,0.1518,0.1524,0.1533,0.1528,0.1536,0.1534,0.1507,0.1506,0.1458,0.1434,0.141,0.1397,0.1332,0.1322,0.1331,0.1297,0.1222,0.1209,0.1197,0.1116,0.1098,0.1328,0.1328,0.1328,0,0.1514,0.1532,0.1537,0.1557,0.1559,0.1562,0.1578,0.1572,0.1571,0.1574,0.1553,0.1529,0.1514,0.1474,0.1455,0.1471,0.1358,0.1419,0.1414,0.1413,0.1337,0.1322,0.1309,0.148,0.1481,0.1481,0,0,0.1524,0.1532,0.1559,0.1564,0.1567,0.1579,0.1578,0.1587,0.1583,0.1578,0.1572,0.1556,0.1531,0.1518,0.15,0.146,0.1429,0.1437,0.143,0.1424,0.142,0.1343,0.1329,0.1483,0.1483,0.1483,0,0,0.1528,0.1563,0.1575,0.1591,0.1593,0.1611,0.1601,0.161,0.1593,0.1592,0.1598,0.1595,0.1554,0.1553,0.1579,0.151,0.1539,0.1534,0.1514,0.1505,0.1498,0.15,0.1609,0,0,0,0,0,0.1555,0.156,0.157,0.1577,0.1606,0.1607,0.1607,0.1621,0.1629,0.1616,0.1607,0.1623,0.1566,0.1589,0.1585,0.1557,0.1509,0.1504,0.15,0.1466,0.1456,0.1448,0,0,0,0,0,0,0.1558,0.1567,0.157,0.1592,0.1599,0.1607,0.1632,0.1635,0.163,0.1632,0.1624,0.1623,0.163,0.1592,0.1588,0.1561,0.161,0.1507,0.1503,0.15,0.1462,0.1455,0.1448,0,0,0,0,0,0.156,0.1567,0.1617,0.1591,0.1597,0.1615,0.1633,0.1635,0.1626,0.1635,0.1634,0.1636,0.163,0.1626,0.159,0.1563,0.1613,0.1612,0.1505,0.1502,0.1499,0.1459,0,0,0,0,0,0,0.1562,0.156,0.1618,0.1619,0.1598,0.1614,0.1619,0.1635,0.1628,0.1629,0.1648,0.165,0.1629,0.1627,0.1624,0.1562,0.1616,0.1614,0.1613,0.1502,0.15,0.1498,0,0,0,0,0,0,0.1556,0.1561,0.1619,0.1627,0.1629,0.1612,0.1617,0.1598,0.1627,0.1641,0.1643,0.1649,0.1629,0.1627,0.1625,0.1594,0.1618,0.1616,0.1615,0.1614,0.15,0.1498,0,0,0,0,0,0,0.1558,0.1562,0.1626,0.1628,0.163,0.1642,0.1594,0.1619,0.1651,0.164,0.1653,0.1653,0.1628,0.1627,0.1625,0.1596,0.1594,0.1618,0.1617,0.1616,0.1615,0,0,0,0,0,0,0,0.1559,0.1536,0.1614,0.1629,0.163,0.1632,0.1632,0.1632,0.1651,0.1652,0.1652,0.1653,0.1627,0.1625,0.1623,0.1597,0,0,0.1618,0.1617,0,0,0,0,0,0,0,0,0.1533,0.1535,0.1614,0.1615,0.1615,0.1632,0.1632,0.1632,0.1651,0.1652,0.1652,0.1653,0.1626,0.1625,0.1624,0,0,0,0,0,0,0,0,0,0,0,0,0,0,0,0.1614,0.1615,0,0.1632,0.1632,0.1632,0.1651,0.1652,0.1652,0.1653,0.1626,0.1625,0.1624,0,0,0,0,0,0,0,0,0,0,0,0,0,0,0,0,0,0,0,0,0,0,0,0,0,0,0,0,0,0,0,0,0,0,0,0,0,0,0,0,0,0,0,0,0,0,0,0,0,0,0,0,0,0,0,0,0,0,0,0,0,0,0,0,0,0,0,0,0]}]],[[{"header":{"parameterUnit":"kt","parameterCategory":2,"dx":1,"dy":1,"la1":30.253999710083008,"la2":30.299108505249023,"lo1":-89.0895004272461,"lo2":-89.04439544677734,"nx":28,"ny":28,"refTime":"2022-09-24T21:00:00:Z","depth":"4","parameterNumber":2,"parameterNumberName":"U-component_of_CURRENTS"},"data":[0.0342,0.0381,0.0419,0.0471,0.0518,0.0579,0.0626,0.0687,0.0703,0.0818,0.0828,0.0955,0.0982,0.1,0.1045,0.1063,0.0964,0.1193,0.1194,0.1017,0.1007,0.0997,0.0837,0,0,0,0,0,0.0378,0.0395,0.0453,0.053,0.0607,0.0655,0.0736,0.0783,0.0887,0.0892,0.0957,0.0974,0.1032,0.1048,0.1063,0.1116,0.105,0.1135,0.0981,0.1011,0.0999,0.0847,0,0,0,0,0,0,0.0433,0.0444,0.0516,0.0595,0.0674,0.0713,0.0762,0.0826,0.0875,0.0988,0.0993,0.104,0.1089,0.111,0.1122,0.1141,0.1059,0.1008,0.0997,0.0986,0.087,0.0955,0.1123,0,0,0,0,0,0.0486,0.0527,0.0572,0.0666,0.0734,0.0792,0.0872,0.0897,0.097,0.1035,0.1058,0.107,0.1117,0.1057,0.114,0.1075,0.0982,0.1047,0.1037,0.0791,0.0858,0.085,0.0834,0.0954,0.0953,0.0952,0.0951,0,0.0548,0.0571,0.0684,0.0726,0.0783,0.0863,0.0906,0.0979,0.0998,0.1075,0.1058,0.1093,0.1044,0.1072,0.0994,0.0994,0.0938,0.1019,0.0757,0.0837,0.0835,0.0822,0.081,0.0942,0.0942,0.0943,0.0944,0,0.0575,0.0643,0.0699,0.0803,0.0844,0.088,0.0989,0.1004,0.104,0.1048,0.1022,0.0985,0.095,0.0925,0.0848,0.081,0.0781,0.081,0.079,0.0791,0.0798,0.0789,0.0926,0.0929,0.0932,0.0935,0.0937,0,0.0636,0.0676,0.0782,0.0806,0.0862,0.0927,0.0972,0.0982,0.1008,0.1008,0.0931,0.0889,0.0746,0.0747,0.065,0.0656,0.0632,0.0575,0.0587,0.0427,0.0421,0.0442,0.0437,0.0457,0.0455,0.0453,0.0452,0,0.0653,0.074,0.0789,0.0817,0.0895,0.0932,0.0971,0.0988,0.1006,0.0954,0.0944,0.0804,0.0744,0.0649,0.0563,0.0483,0.0548,0.0442,0.053,0.0541,0.0428,0.0427,0.0449,0.0449,0.0448,0.0447,0.0447,0,0.0693,0.0734,0.0795,0.0866,0.0885,0.0924,0.0965,0.0986,0.0972,0.0948,0.0851,0.0765,0.0636,0.0549,0.0454,0.0402,0.0382,0.0352,0.0359,0.042,0.0413,0.0507,0.0498,0.0496,0.0495,0.0494,0.0493,0,0.069,0.0746,0.0781,0.0839,0.0873,0.0906,0.0931,0.0943,0.0936,0.0927,0.0804,0.0716,0.0596,0.0493,0.0419,0.0321,0.0329,0.0264,0.0341,0.0348,0.042,0.0418,0.0207,0.0476,0.0478,0.0479,0.0481,0,0.0676,0.0747,0.0756,0.0788,0.0839,0.0858,0.0892,0.0905,0.0915,0.0873,0.0857,0.0662,0.0586,0.051,0.038,0.0324,0.032,0.0267,0.0265,0.0411,0.0344,0.0397,0.0413,0.021,0.0209,0.0209,0.0469,0,0.0702,0.0733,0.0748,0.0785,0.0812,0.0839,0.0861,0.088,0.0881,0.087,0.0783,0.0679,0.0568,0.0486,0.041,0.0297,0.0339,0.0273,0.0299,0.0254,0.038,0.0389,0.0287,0.0288,0.0288,0.0289,0,0,0.0682,0.0704,0.0716,0.0744,0.0767,0.0783,0.0814,0.0827,0.084,0.0835,0.0824,0.0663,0.0589,0.0455,0.0396,0.0364,0.0386,0.0341,0.0265,0.0262,0.0259,0.0376,0.0385,0.0289,0.0289,0.029,0.029,0,0.0676,0.0692,0.0708,0.0729,0.0759,0.0768,0.0783,0.0807,0.0821,0.0816,0.0758,0.0677,0.0592,0.0506,0.0444,0.0378,0.0378,0.0305,0.0301,0.0268,0.0265,0.0262,0.0376,0.0384,0.0291,0.0291,0.0291,0,0.0666,0.0674,0.068,0.0702,0.0722,0.0746,0.0746,0.0774,0.0793,0.0752,0.0772,0.0693,0.0602,0.052,0.0484,0.049,0.0404,0.0381,0.0377,0.0408,0.0378,0.0373,0.0369,0.0431,0.0432,0.0432,0,0,0.0663,0.0672,0.0687,0.07,0.0715,0.0735,0.0749,0.0761,0.0762,0.0769,0.075,0.0699,0.0618,0.0587,0.0535,0.0473,0.0511,0.04,0.0393,0.0388,0.0415,0.0384,0.0378,0.0435,0.0435,0.0435,0,0,0.0657,0.0667,0.0675,0.0691,0.0708,0.0719,0.074,0.0752,0.0759,0.0764,0.0726,0.0716,0.0656,0.0626,0.0668,0.0499,0.0523,0.0515,0.052,0.0512,0.0505,0.0553,0.0623,0,0,0,0,0,0.0652,0.0663,0.067,0.0674,0.0697,0.0714,0.0719,0.0737,0.075,0.0768,0.0752,0.072,0.0623,0.066,0.0648,0.0569,0.0467,0.0461,0.0456,0.0448,0.0439,0.0432,0,0,0,0,0,0,0.0653,0.0657,0.067,0.0678,0.0684,0.0713,0.0712,0.0717,0.0748,0.0752,0.0726,0.0718,0.0684,0.0662,0.0653,0.0577,0.0627,0.0465,0.046,0.0456,0.0445,0.0438,0.0431,0,0,0,0,0,0.0654,0.0657,0.0689,0.0679,0.0683,0.0707,0.0712,0.0717,0.075,0.0703,0.0699,0.0765,0.0684,0.0674,0.0656,0.0581,0.0633,0.0629,0.0462,0.0458,0.0455,0.0441,0,0,0,0,0,0,0.0655,0.0665,0.0691,0.0693,0.068,0.0707,0.0711,0.0716,0.0698,0.0697,0.0734,0.0736,0.0684,0.0677,0.0669,0.0583,0.0638,0.0635,0.0632,0.0459,0.0456,0.0453,0,0,0,0,0,0,0.0663,0.0666,0.0692,0.0692,0.0695,0.0707,0.0711,0.0673,0.0695,0.073,0.0732,0.0735,0.0669,0.0678,0.0672,0.0616,0.0642,0.0639,0.0636,0.0635,0.0456,0.0454,0,0,0,0,0,0,0.0665,0.0668,0.0692,0.0694,0.0696,0.0725,0.0671,0.0679,0.0746,0.0729,0.0747,0.0747,0.0668,0.0664,0.0674,0.0621,0.0617,0.0642,0.064,0.0638,0.0637,0,0,0,0,0,0,0,0.0666,0.0641,0.0675,0.0695,0.0697,0.0714,0.0715,0.0716,0.0746,0.0747,0.0747,0.0747,0.0661,0.0658,0.0654,0.0625,0,0,0.0642,0.0641,0,0,0,0,0,0,0,0,0.0641,0.0641,0.0675,0.0676,0.0676,0.0714,0.0715,0.0716,0.0746,0.0747,0.0747,0.0747,0.066,0.0657,0.0654,0,0,0,0,0,0,0,0,0,0,0,0,0,0,0,0.0675,0.0676,0,0.0714,0.0715,0.0715,0.0746,0.0746,0.0747,0.0747,0.0659,0.0657,0.0654,0,0,0,0,0,0,0,0,0,0,0,0,0,0,0,0,0,0,0,0,0,0,0,0,0,0,0,0,0,0,0,0,0,0,0,0,0,0,0,0,0,0,0,0,0,0,0,0,0,0,0,0,0,0,0,0,0,0,0,0,0,0,0,0,0,0,0,0,0]}],[{"header":{"parameterUnit":"kt","parameterCategory":2,"dx":1,"dy":1,"la1":30.253999710083008,"la2":30.299108505249023,"lo1":-89.0895004272461,"lo2":-89.04439544677734,"nx":28,"ny":28,"refTime":"2022-09-24T21:00:00:Z","depth":"4","parameterNumber":3,"parameterNumberName":"V-component_of_CURRENTS"},"data":[-0.0298,-0.0277,-0.0257,-0.0213,-0.0205,-0.0184,-0.0166,-0.0153,-0.0108,-0.0104,-0.0148,-0.0177,-0.0276,-0.0227,-0.037,-0.0397,-0.0507,-0.0575,-0.0576,-0.0777,-0.0787,-0.0796,-0.0813,0,0,0,0,0,-0.0318,-0.0296,-0.0276,-0.0265,-0.0253,-0.0261,-0.0224,-0.0237,-0.0226,-0.0131,-0.0187,-0.0168,-0.0258,-0.0306,-0.0368,-0.0443,-0.0623,-0.0519,-0.0687,-0.0783,-0.0794,-0.0808,0,0,0,0,0,0,-0.034,-0.0327,-0.0329,-0.0329,-0.0326,-0.0292,-0.0315,-0.028,-0.0279,-0.0278,-0.0209,-0.0278,-0.0322,-0.0423,-0.0452,-0.0531,-0.0586,-0.0628,-0.0647,-0.0659,-0.0644,-0.0628,-0.0423,0,0,0,0,0,-0.0364,-0.0386,-0.0387,-0.0385,-0.0406,-0.0405,-0.0441,-0.0409,-0.0459,-0.0497,-0.0409,-0.0448,-0.0431,-0.0524,-0.0579,-0.0633,-0.0837,-0.0792,-0.0801,-0.0906,-0.0914,-0.0929,-0.0943,-0.0836,-0.0838,-0.0838,-0.0839,0,-0.0409,-0.041,-0.0443,-0.0444,-0.0488,-0.0549,-0.0568,-0.0665,-0.066,-0.0667,-0.0613,-0.0621,-0.0651,-0.0618,-0.073,-0.0804,-0.0818,-0.082,-0.0931,-0.0933,-0.0943,-0.0955,-0.0965,-0.0848,-0.0847,-0.0846,-0.0846,0,-0.0434,-0.0463,-0.047,-0.0532,-0.0555,-0.0595,-0.068,-0.0705,-0.0801,-0.0793,-0.0802,-0.0857,-0.0837,-0.0922,-0.0926,-0.0961,-0.0953,-0.0926,-0.1024,-0.1033,-0.0977,-0.0985,-0.0863,-0.0859,-0.0857,-0.0854,-0.0852,0,-0.0481,-0.0494,-0.055,-0.0557,-0.0579,-0.0666,-0.0725,-0.0798,-0.0885,-0.0894,-0.1031,-0.0986,-0.1095,-0.1073,-0.1108,-0.1059,-0.1074,-0.1071,-0.1067,-0.1193,-0.1199,-0.1196,-0.1204,-0.1133,-0.1134,-0.1135,-0.1135,0,-0.0518,-0.0554,-0.0565,-0.0584,-0.0636,-0.069,-0.0746,-0.0871,-0.0918,-0.104,-0.1061,-0.1137,-0.1132,-0.1148,-0.1151,-0.1194,-0.1117,-0.1179,-0.1107,-0.1104,-0.1202,-0.1209,-0.1136,-0.1136,-0.1136,-0.1136,-0.1136,0,-0.0572,-0.0576,-0.0598,-0.0638,-0.0658,-0.0691,-0.0781,-0.0843,-0.0976,-0.1063,-0.1155,-0.122,-0.1234,-0.126,-0.1247,-0.1271,-0.126,-0.1263,-0.1261,-0.1198,-0.1226,-0.1263,-0.125,-0.1251,-0.1253,-0.1254,-0.1254,0,-0.0586,-0.0595,-0.0635,-0.0658,-0.0673,-0.0743,-0.0797,-0.0883,-0.0992,-0.1095,-0.118,-0.1268,-0.1315,-0.1337,-0.1332,-0.1342,-0.1313,-0.1352,-0.1312,-0.131,-0.1215,-0.1182,-0.1338,-0.1269,-0.1267,-0.1266,-0.1265,0,-0.0599,-0.0643,-0.0654,-0.0669,-0.0726,-0.0736,-0.0811,-0.089,-0.095,-0.1095,-0.1181,-0.1286,-0.1339,-0.137,-0.1402,-0.1385,-0.1336,-0.1395,-0.1394,-0.133,-0.1278,-0.121,-0.1195,-0.1346,-0.1344,-0.1343,-0.1275,0,-0.0627,-0.0654,-0.0662,-0.0693,-0.0722,-0.074,-0.0802,-0.088,-0.0984,-0.1062,-0.1197,-0.1265,-0.1361,-0.1409,-0.142,-0.143,-0.1433,-0.145,-0.1416,-0.1426,-0.1402,-0.1394,-0.1499,-0.15,-0.15,-0.1501,0,0,-0.0637,-0.0652,-0.0685,-0.07,-0.0721,-0.0767,-0.0788,-0.0843,-0.0957,-0.1028,-0.108,-0.1274,-0.1336,-0.138,-0.1399,-0.145,-0.1436,-0.1446,-0.1447,-0.1441,-0.1436,-0.1411,-0.1402,-0.1501,-0.1502,-0.1502,-0.1502,0,-0.0633,-0.0675,-0.0683,-0.0706,-0.0737,-0.0755,-0.0777,-0.0855,-0.0926,-0.103,-0.1092,-0.1176,-0.1329,-0.1352,-0.1382,-0.1448,-0.1451,-0.1509,-0.1475,-0.1452,-0.1446,-0.144,-0.1414,-0.1406,-0.1503,-0.1503,-0.1503,0,-0.0648,-0.0657,-0.0669,-0.0698,-0.073,-0.0748,-0.0791,-0.0826,-0.0867,-0.0938,-0.1078,-0.1151,-0.1218,-0.1302,-0.1356,-0.1347,-0.1431,-0.1455,-0.1455,-0.1432,-0.1406,-0.1401,-0.1396,-0.1449,-0.1448,-0.1448,0,0,-0.0646,-0.0658,-0.0683,-0.0698,-0.0717,-0.0767,-0.0791,-0.0822,-0.0884,-0.0929,-0.1032,-0.1128,-0.1191,-0.1242,-0.1317,-0.1393,-0.1373,-0.1444,-0.1447,-0.1448,-0.1426,-0.1402,-0.1397,-0.1445,-0.1445,-0.1445,0,0,-0.0641,-0.0663,-0.0687,-0.0708,-0.0729,-0.0757,-0.0785,-0.0831,-0.092,-0.095,-0.1027,-0.1052,-0.1162,-0.1205,-0.1165,-0.132,-0.1316,-0.1326,-0.1274,-0.1278,-0.1281,-0.1231,-0.119,0,0,0,0,0,-0.0639,-0.065,-0.0671,-0.0677,-0.0727,-0.074,-0.075,-0.0803,-0.0859,-0.0885,-0.0972,-0.1007,-0.1196,-0.116,-0.1182,-0.1228,-0.1414,-0.142,-0.1425,-0.1379,-0.1383,-0.1386,0,0,0,0,0,0,-0.0641,-0.0648,-0.067,-0.0693,-0.0704,-0.0741,-0.0779,-0.0794,-0.0857,-0.0869,-0.0988,-0.1008,-0.1043,-0.1153,-0.1172,-0.1215,-0.1184,-0.1417,-0.1421,-0.1425,-0.138,-0.1383,-0.1386,0,0,0,0,0,-0.0643,-0.0648,-0.0717,-0.0695,-0.0704,-0.0764,-0.0781,-0.0794,-0.0871,-0.0923,-0.0947,-0.0914,-0.1039,-0.1063,-0.1165,-0.1205,-0.1171,-0.1178,-0.142,-0.1423,-0.1427,-0.1382,0,0,0,0,0,0,-0.0644,-0.0676,-0.0721,-0.0725,-0.0706,-0.0766,-0.0779,-0.0794,-0.0926,-0.0944,-0.0846,-0.0853,-0.1037,-0.1056,-0.1074,-0.1199,-0.1161,-0.1168,-0.1172,-0.1422,-0.1425,-0.1428,0,0,0,0,0,0,-0.0672,-0.068,-0.0724,-0.0735,-0.0742,-0.0767,-0.0778,-0.0843,-0.093,-0.0846,-0.0853,-0.0848,-0.1028,-0.1051,-0.1065,-0.1162,-0.1153,-0.116,-0.1164,-0.1167,-0.1425,-0.1427,0,0,0,0,0,0,-0.0676,-0.0683,-0.0736,-0.0741,-0.0747,-0.0809,-0.083,-0.0897,-0.0884,-0.0842,-0.0888,-0.089,-0.1022,-0.1037,-0.1058,-0.1149,-0.1159,-0.1153,-0.1158,-0.1161,-0.1163,0,0,0,0,0,0,0,-0.068,-0.0625,-0.0683,-0.0745,-0.0751,-0.0764,-0.0766,-0.0769,-0.0884,-0.0886,-0.0888,-0.089,-0.1115,-0.1123,-0.113,-0.1138,0,0,-0.1153,-0.1156,0,0,0,0,0,0,0,0,-0.0624,-0.0625,-0.0683,-0.0683,-0.0683,-0.0764,-0.0766,-0.0768,-0.0884,-0.0886,-0.0887,-0.0889,-0.1117,-0.1123,-0.1129,0,0,0,0,0,0,0,0,0,0,0,0,0,0,0,-0.0683,-0.0683,0,-0.0765,-0.0766,-0.0768,-0.0885,-0.0886,-0.0887,-0.0888,-0.1119,-0.1124,-0.1129,0,0,0,0,0,0,0,0,0,0,0,0,0,0,0,0,0,0,0,0,0,0,0,0,0,0,0,0,0,0,0,0,0,0,0,0,0,0,0,0,0,0,0,0,0,0,0,0,0,0,0,0,0,0,0,0,0,0,0,0,0,0,0,0,0,0,0,0,0]}]]]